Flag for Canada Weather past 2 weeks in Calgary, Alberta, Canada

Now
32 °F

Light rain. Low clouds.


Feels Like: 20 °F
Forecast: 29 / 38 °F
Wind: 20 mph from North

Location: Calgary International


UV Index: 0 (Low)

Visibility: 1 mi


Pressure: 29.99 "Hg

Humidity: 93%

Dew point: 30 °F

Location of CalgaryLocation

Historic Weather in Calgary

°F

Calgary temperature yesterday

Maximum temperature yesterday: 59 °F (at 4:00 PM)
Minimum temperature yesterday: 25 °F (at 4:00 AM)
Average temperature yesterday: 43 °F

Past Weeks' High & Low Weather Summary

 TemperatureHumidityPressure
High66 °F (Apr 8, 3:00 PM)100% (Apr 4, 2:00 AM)30.47 "Hg (Apr 4, 2:00 AM)
Low12 °F (Apr 1, 5:00 AM)11% (Apr 14, 12:00 PM)29.62 "Hg (Apr 9, 12:00 AM)
Average37 °F54%29.97 "Hg
* Reported Mar 31 9:00 PM — Apr 15 9:00 PM, Calgary, Weather by CustomWeather, © 2014

Note: Actual official high and low records may vary slightly from our data, if they occured in-between our weather recording intervals... More about our weather records

Advertising

Historic Weather Conditions — Data for Previous 24 hours

 ConditionsComfort  
Time TempWeatherWind HumidityBarometerVisibility
9:00 PM
Apr 15
34 °FLight rain. Low clouds.13 mph87%29.97 "Hg7 mi
8:00 PM37 °FLight rain. Mostly cloudy.16 mph75%29.93 "Hg15 mi
7:00 PM37 °FSprinkles. Mostly cloudy.8 mph70%29.91 "Hg15 mi
5:00 PM43 °FCloudy.14 mph53%29.86 "Hg15 mi
4:00 PM45 °FMostly cloudy.10 mph39%29.85 "Hg15 mi
3:00 PM45 °FBroken clouds.14 mph37%29.83 "Hg15 mi
2:00 PM45 °FMore clouds than sun.24 mph37%29.81 "Hg15 mi
1:00 PM45 °FOvercast.28 mph37%29.80 "Hg15 mi
12:00 PM46 °FOvercast.28 mph29%29.78 "Hg15 mi
11:00 AM46 °FCloudy.24 mph29%29.75 "Hg15 mi
10:00 AM48 °FOvercast.28 mph25%29.72 "Hg40 mi
9:00 AM46 °FMore clouds than sun.21 mph27%29.71 "Hg40 mi
8:00 AM41 °FOvercast.5 mph39%29.71 "Hg40 mi
7:03 AM43 °FMostly cloudy.18 mph34%29.69 "Hg30 mi
6:00 AM45 °FPassing clouds.9 mph29%29.66 "Hg15 mi
5:00 AM46 °FOvercast.12 mph27%29.66 "Hg15 mi
4:00 AM46 °FOvercast.10 mph27%29.67 "Hg15 mi
3:00 AM46 °FPassing clouds.9 mph25%29.69 "Hg15 mi
2:00 AM46 °FOvercast.10 mph25%29.70 "Hg15 mi
1:00 AM48 °FPassing clouds.14 mph21%29.72 "Hg15 mi
12:00 AM45 °FPassing clouds.10 mph25%29.74 "Hg15 mi
11:00 PM
Apr 14
50 °FOvercast.15 mph19%29.73 "Hg15 mi
Weather by CustomWeather, © 2014

See weather overview